TimeCDT,TemperatureF,Dew PointF,Humidity,Sea Level PressureIn,VisibilityMPH,Wind Direction,Wind SpeedMPH,Gust SpeedMPH,PrecipitationIn,Events,Conditions,WindDirDegrees,DateUTC
12:53 AM,64.9,59.0,81,29.94,10.0,South,6.9,-,N/A,,Clear,170,2012-10-25 05:53:00
1:53 AM,64.0,59.0,84,29.93,10.0,South,6.9,-,N/A,,Clear,180,2012-10-25 06:53:00
2:53 AM,63.0,59.0,87,29.92,10.0,South,4.6,-,N/A,,Clear,190,2012-10-25 07:53:00
3:53 AM,63.0,59.0,87,29.91,10.0,South,6.9,-,N/A,,Clear,180,2012-10-25 08:53:00
4:53 AM,64.0,59.0,84,29.91,10.0,South,5.8,-,N/A,,Mostly Cloudy,180,2012-10-25 09:53:00
5:53 AM,64.0,59.0,84,29.94,10.0,Calm,Calm,-,N/A,,Mostly Cloudy,0,2012-10-25 10:53:00
6:53 AM,64.0,59.0,84,29.94,10.0,South,6.9,-,N/A,,Overcast,180,2012-10-25 11:53:00
7:53 AM,64.0,59.0,84,29.96,10.0,South,9.2,-,N/A,,Mostly Cloudy,170,2012-10-25 12:53:00
8:53 AM,66.0,61.0,84,29.96,10.0,South,9.2,-,N/A,,Mostly Cloudy,180,2012-10-25 13:53:00
9:53 AM,71.1,62.1,73,29.96,10.0,South,8.1,-,N/A,,Mostly Cloudy,180,2012-10-25 14:53:00
10:53 AM,77.0,64.0,64,29.96,10.0,SW,13.8,23.0,N/A,,Partly Cloudy,220,2012-10-25 15:53:00
11:53 AM,80.1,64.9,60,29.94,10.0,SSW,17.3,-,N/A,,Scattered Clouds,210,2012-10-25 16:53:00
12:53 PM,81.0,63.0,54,29.92,10.0,SSW,19.6,27.6,N/A,,Partly Cloudy,200,2012-10-25 17:53:00
1:53 PM,82.0,63.0,52,29.90,10.0,South,17.3,-,N/A,,Mostly Cloudy,190,2012-10-25 18:53:00
2:53 PM,82.0,62.1,51,29.88,10.0,SSW,17.3,25.3,N/A,,Partly Cloudy,210,2012-10-25 19:53:00
3:53 PM,80.1,61.0,52,29.88,10.0,SSW,15.0,24.2,N/A,,Mostly Cloudy,210,2012-10-25 20:53:00
4:53 PM,81.0,61.0,50,29.87,10.0,South,15.0,23.0,N/A,,Partly Cloudy,180,2012-10-25 21:53:00
5:53 PM,78.1,61.0,56,29.88,10.0,SSW,11.5,-,N/A,,Mostly Cloudy,200,2012-10-25 22:53:00
6:53 PM,75.9,61.0,60,29.88,10.0,South,10.4,-,N/A,,Partly Cloudy,170,2012-10-25 23:53:00
7:53 PM,73.0,62.1,68,29.90,10.0,South,5.8,-,N/A,,Mostly Cloudy,180,2012-10-26 00:53:00
8:53 PM,68.0,60.1,76,29.94,10.0,NW,15.0,25.3,N/A,,Overcast,310,2012-10-26 01:53:00
9:04 PM,64.4,57.2,77,29.96,10.0,NW,16.1,23.0,N/A,,Overcast,310,2012-10-26 02:04:00
9:53 PM,57.9,53.1,84,29.99,10.0,NW,13.8,24.2,N/A,,Overcast,310,2012-10-26 02:53:00
10:20 PM,57.2,51.8,82,30.02,10.0,NW,13.8,28.8,0.00,,Overcast,310,2012-10-26 03:20:00
10:53 PM,53.6,50.0,88,30.04,7.0,NW,13.8,31.1,N/A,Rain,Light Rain,320,2012-10-26 03:53:00
11:53 PM,51.1,48.9,92,30.07,10.0,NNW,11.5,21.9,0.04,Rain,Light Rain,330,2012-10-26 04:53:00